Weather History for KFDR - December, 2012

Change the Weather History Date:

Wednesday, December 12, 2012

  Actual Average (KLTS) Record (KLTS)
Temperature  
Mean Temperature 40 °F -  
Max Temperature 59 °F 52 °F 66 °F (2006)
Min Temperature 21 °F 27 °F 15 °F (2000)
Degree Days  
Heating Degree Days 25    
Moisture  
Dew Point 14 °F    
Average Humidity 39    
Maximum Humidity 63    
Minimum Humidity 20    
Precipitation  
Precipitation 0.00 in - - ()
Sea Level Pressure  
Sea Level Pressure 30.13 in    
Wind  
Wind Speed 10 mph (SSE)    
Max Wind Speed 24 mph    
Max Gust Speed 30 mph    
Visibility 10 miles    
Events      
Averages and records for this station are not official NWS values.
T = Trace of Precipitation, MM = Missing Value Source: NWS Daily Summary

Daily Weather History Graph

Daily Weather History Graph

Search for Another Location

Airport or City:

Trip Planner

Search our weather history database for the weather conditions in past years. The results will help you decide how hot, cold, wet, or windy it might be!

Date:

Astronomy

Dec. 12, 2012 Rise Set
Actual Time 7:33 AM CST 5:26 PM CST
Civil Twilight 7:05 AM CST 5:54 PM CST
Nautical Twilight 6:34 AM CST 6:25 PM CST
Astronomical Twilight 6:03 AM CST 6:56 PM CST
Moon 6:40 AM CST (12/12) 5:04 PM CST (12/12)
Length of Visible Light 10h 49m
Length of Day
9h 53m
Waning Crescent, 1% of the Moon is Illuminated
Dec 12
Waning Crescent
Dec 13
New
Dec 19
First Quarter
Dec 28
Full
Jan 4
Last Quarter

Hourly Weather History & Observations

Time (CST) Temp. Windchill Dew Point Humidity Pressure Visibility Wind Dir Wind Speed Gust Speed Precip Events Conditions
12:53 AM 28.0 °F 20.0 °F 10.0 °F 47% 30.17 in 10.0 mi South 8.1 mph - N/A   Clear
1:53 AM 27.0 °F 21.6 °F 10.9 °F 51% 30.17 in 10.0 mi South 4.6 mph - N/A   Clear
2:53 AM 26.1 °F 21.9 °F 10.9 °F 53% 30.17 in 10.0 mi SW 3.5 mph - N/A   Clear
3:53 AM 28.0 °F 22.8 °F 10.9 °F 49% 30.17 in 10.0 mi SSE 4.6 mph - N/A   Clear
4:53 AM 24.1 °F 17.0 °F 10.0 °F 55% 30.17 in 10.0 mi ESE 5.8 mph - N/A   Clear
5:53 AM 23.0 °F 14.7 °F 10.0 °F 58% 30.17 in 10.0 mi SE 6.9 mph - N/A   Clear
6:53 AM 21.9 °F 12.5 °F 10.0 °F 60% 30.20 in 10.0 mi SSE 8.1 mph - N/A   Clear
7:53 AM 21.9 °F 12.5 °F 10.9 °F 63% 30.21 in 10.0 mi SE 8.1 mph - N/A   Clear
8:53 AM 30.0 °F 24.1 °F 14.0 °F 51% 30.21 in 10.0 mi SE 5.8 mph - N/A   Clear
9:53 AM 39.0 °F 31.4 °F 12.0 °F 33% 30.21 in 10.0 mi South 12.7 mph - N/A   Clear
11:53 AM 51.1 °F - 15.1 °F 24% 30.17 in 10.0 mi South 16.1 mph - N/A   Clear
12:53 PM 55.0 °F - 17.1 °F 23% 30.13 in 10.0 mi SSE 16.1 mph - N/A   Clear
1:53 PM 57.9 °F - 17.1 °F 20% 30.08 in 10.0 mi SSE 17.3 mph - N/A   Clear
2:53 PM 59.0 °F - 17.1 °F 20% 30.06 in 10.0 mi South 24.2 mph 29.9 mph N/A   Clear
3:53 PM 59.0 °F - 17.1 °F 20% 30.05 in 10.0 mi SSE 19.6 mph - N/A   Clear
4:53 PM 57.0 °F - 17.1 °F 21% 30.05 in 10.0 mi SSE 16.1 mph - N/A   Clear
5:53 PM 48.9 °F - 16.0 °F 27% 30.06 in 10.0 mi SE 11.5 mph - N/A   Clear
6:53 PM 46.0 °F 40.2 °F 16.0 °F 30% 30.08 in 10.0 mi SE 12.7 mph - N/A   Clear
7:53 PM 43.0 °F 36.4 °F 16.0 °F 34% 30.09 in 10.0 mi ESE 12.7 mph - N/A   Clear
8:53 PM 39.9 °F 33.4 °F 17.1 °F 40% 30.11 in 10.0 mi SE 10.4 mph - N/A   Clear
9:53 PM 39.9 °F 33.4 °F 18.0 °F 41% 30.11 in 10.0 mi SE 10.4 mph - N/A   Clear
10:53 PM 41.0 °F 33.5 °F 18.0 °F 40% 30.11 in 10.0 mi SSE 13.8 mph - N/A   Clear
11:53 PM 42.1 °F 34.5 °F 19.0 °F 40% 30.11 in 10.0 mi SSE 15.0 mph - N/A   Clear